Tracking 19242 objects as of 20-Sep-2018
HD Live streaming from Space Station
objects crossing your sky now

FENGYUN 1C DEB

Track FENGYUN 1C DEB now!
10-day predictions


NORAD ID: 31611
Int'l Code: 1999-025BZR
Perigee: 706.5 km
Apogee: 867.8 km
Inclination: 99.0 °
Period: 100.5 minutes
Semi major axis: 7158 km
RCS: 0.0063 m2 (small)
Launch date: May 10, 1999
Source: People's Republic of China (PRC)
Launch site: Taiyaun Space Center, China (TSC)

Note: This is SATELLITE DEBRIS
aabbcc
Your satellite tracking list
Your tracking list is empty




NASA's NSSDC Master Catalog

Two Line Element Set (TLE):
1 31611U 99025BZR 18260.84618152  .00001328  00000-0  46359-3 0  9993
2 31611  98.9766  20.5336 0112716 119.8401  11.2599 14.33513184587583
Source of the keplerian elements: AFSPC